This is the latest recevied weather packets stored in our database for station/object SP9KB-13. If no packets are shown the sender has not sent any weather packets the latest 10 day(s).
| Time | Temp. | Humidity | Pressure | Rain* | Wind** | Luminosity | Snow |
|---|---|---|---|---|---|---|---|
| 1777912748 | 21.67° C | 29% | 995.3 hPa | 0 mm | - | - | - |
| 1777912448 | 21.67° C | 29% | 995.4 hPa | 0 mm | - | - | - |
| 1777911546 | 21.67° C | 29% | 995.3 hPa | 0 mm | - | - | - |
| 1777910946 | 22.78° C | 28% | 995.6 hPa | 0 mm | - | - | - |
| 1777910645 | 23.33° C | 28% | 995.4 hPa | 0 mm | - | - | - |
| 1777910044 | 23.89° C | 27% | 995.3 hPa | 0 mm | - | - | - |
| 1777909443 | 23.89° C | 26% | 995.2 hPa | 0 mm | - | - | - |
| 1777909142 | 23.89° C | 26% | 995.5 hPa | 0 mm | - | - | - |
| 1777908841 | 24.44° C | 25% | 995.5 hPa | 0 mm | - | - | - |
| 1777908541 | 24.44° C | 26% | 995.6 hPa | 0 mm | - | - | - |
| 1777907940 | 24.44° C | 24% | 995.5 hPa | 0 mm | - | - | - |
| 1777907639 | 25° C | 24% | 995.8 hPa | 0 mm | - | - | - |
| 1777907339 | 24.44° C | 25% | 995.6 hPa | 0 mm | - | - | - |
| 1777907038 | 25° C | 24% | 995.8 hPa | 0 mm | - | - | - |
| 1777906737 | 25° C | 25% | 995.9 hPa | 0 mm | - | - | - |
| 1777906437 | 25° C | 26% | 995.6 hPa | 0 mm | - | - | - |
| 1777905835 | 24.44° C | 25% | 995.9 hPa | 0 mm | - | - | - |
| 1777905535 | 25.56° C | 25% | 995.9 hPa | 0 mm | - | - | - |
| 1777905233 | 25.56° C | 24% | 995.9 hPa | 0 mm | - | - | - |
| 1777904932 | 25° C | 25% | 996 hPa | 0 mm | - | - | - |
| 1777904632 | 25° C | 25% | 996 hPa | 0 mm | - | - | - |
| 1777904331 | 25° C | 26% | 995.9 hPa | 0 mm | - | - | - |
| 1777904031 | 25° C | 25% | 996 hPa | 0 mm | - | - | - |
| 1777903730 | 25° C | 26% | 996 hPa | 0 mm | - | - | - |
| 1777903429 | 25.56° C | 26% | 996.1 hPa | 0 mm | - | - | - |
* Rain latest hour (hover to see other rain measurements)
** Current wind speed in m/s (hover to see current wind gust speed)